C/2019 M3 ( ATLAS )

Japanese version
Home page
Updated on September 24, 2019

---------------------------------------------------------------------

* Profile

Discovery Date June 30, 2019
Magnitude 19.3 mag
Discoverer Asteroid Terrestrial-Impact Last Alert System (ATLAS) search program

* Pictures

* Orbital Elements

Epoch 2018 Dec. 28.0 TT = JDT 2458480.5
T 2019 Jan. 3.05794 TT                                  Williams
q   2.4180392            (2000.0)            P               Q
z  -0.0009595      Peri.   87.93997     +0.03700557     +0.90742869
 +/-0.0000305      Node   154.89233     -0.24195662     -0.39826146
e   1.0023202      Incl.   99.44079     +0.96958114     -0.13401860
From 204 observations 2019 June 30-Aug. 23, mean residual 0".5.

* Magnitudes Graph

        m1 = 11.5 + 5 log d + 10.0 log r

---------------------------------------------------------------------

The orbital elements are published on M.P.E.C. 2019-Q135.
The magnitudes graphs are made with Comet for Windows.

---------------------------------------------------------------------

Copyright(C) Seiichi Yoshida (comet@aerith.net). All rights reserved.